Location: Blairville
(50.2167°N, 2.7167°E)
Time: 21:07:48
(UTC+00:00)

Daily predictions for brighter satellites

Satellite Brightness Start Highest point End
(mag) Time Altitude Azimuth Time Altitude Azimuth Time Altitude Azimuth
Cosmos 1844 Rocket 3.4 17:04:31 10° NNW 17:09:34 33° NE 17:14:35 10° ESE
NOSS 3-1 (A) 4.5 17:07:23 10° SSE 17:11:17 21° ESE 17:15:36 10° ENE
CZ-2D R/B 3.5 17:07:54 10° SE 17:11:37 48° ENE 17:15:23 10° N
AQUARIUS 4.2 17:07:31 10° SSE 17:12:01 84° ENE 17:16:33 10° NNW
H-2A R/B 2.4 17:07:01 10° SE 17:12:14 50° ENE 17:17:31 10° N
X-37B 2.6 17:09:39 10° WSW 17:12:47 29° SSW 17:15:54 10° SE
Cosmos 371 Rocket 3.8 17:08:57 10° S 17:13:26 39° ESE 17:17:59 10° NE
Cosmos 1328 4.0 17:12:09 10° N 17:16:08 51° ENE 17:20:04 10° SSE
Cosmos 1908 3.2 17:12:26 10° S 17:16:18 87° E 17:20:11 10° N
Cosmos 1125 Rocket 4.2 17:11:20 10° SW 17:16:30 59° WNW 17:21:42 10° NNE
CENTAUR R/B 4.1 17:11:57 10° WNW 17:18:04 30° N 17:25:05 10° ENE
USA 267 3.4 17:14:56 10° SE 17:21:30 81° SSW 17:28:06 10° WNW
Cosmos 1269 Rocket 4.3 17:17:12 10° NNW 17:22:31 75° WSW 17:27:46 10° SSE
Tiangong 3.4 17:22:27 10° SW 17:24:40 17° S 17:26:53 10° SE
SKYMED 2 4.3 17:21:30 10° NNE 17:25:24 32° E 17:29:18 10° SSE
BREEZE-M R/B 2.6 17:24:51 10° W 17:28:43 72° S 17:32:41 10° ESE
Cosmos 1455 Rocket 3.0 17:25:07 10° S 17:29:32 74° E 17:34:00 10° NNE
Landsat 5 4.3 17:26:10 10° NNE 17:30:11 32° E 17:34:14 10° SSE
NOSS 2-3 (D) 4.2 17:27:05 10° S 17:30:47 36° ESE 17:35:04 10° NE
YAOGAN 1 3.6 17:27:43 10° ESE 17:31:16 25° ENE 17:34:49 10° N
Cosmos 1953 2.6 17:27:47 10° SSW 17:31:51 74° WNW 17:35:56 10° N
Cosmos 2278 4.0 17:28:14 10° SW 17:33:54 73° WNW 17:39:39 10° NNE
NOSS 3-1 (C) 3.5 17:29:20 10° SSW 17:34:25 50° ESE 17:40:25 10° NE
ATLAS 5 CENTAUR R/B 2.0 17:31:04 10° WSW 17:34:57 56° NW 17:39:28 10° NE
Cosmos 2278 Rocket 3.9 17:32:19 10° N 17:35:43 16° NNE 17:38:37 11° ENE
Lacrosse 4 Rocket 1.4 17:32:13 10° NNW 17:36:33 78° NE 17:40:57 10° SE
Cosmos 44 4.5 17:32:17 10° S 17:36:48 28° ESE 17:40:54 12° ENE
Cosmos 1140 Rocket 4.5 17:32:55 10° N 17:37:18 26° NE 17:41:12 12° ESE
Cosmos 407 Rocket 4.4 17:34:35 10° N 17:39:12 29° NE 17:43:29 12° ESE
Cosmos 1825 3.7 17:38:40 10° NNE 17:41:05 16° ENE 17:41:33 16° ENE
Cosmos 1300 2.7 17:39:13 10° S 17:42:56 58° E 17:46:42 10° NNE
Cosmos 2251 Rocket 3.6 17:37:49 10° NNW 17:42:59 53° ENE 17:48:05 10° SE
NOSS 2-3 (C) 3.8 17:39:20 10° SSW 17:43:14 48° SE 17:47:34 11° NE
Cosmos 1544 Rocket 3.6 17:39:42 10° S 17:44:07 62° E 17:48:31 10° NNE
SL-16 R/B 2.3 17:40:00 10° S 17:45:33 60° ESE 17:51:09 10° NE
Cosmos 1821 Rocket 4.5 17:42:45 10° SSW 17:49:06 68° WNW 17:55:26 10° N
SL-19 R/B 4.2 17:46:02 10° NNE 17:51:45 73° ESE 17:57:18 10° SSW
Cosmos 2322 Rocket 2.3 17:51:34 10° S 17:57:01 56° ESE 18:02:32 10° NE
Cosmos 1934 Rocket 3.9 17:52:03 10° S 17:58:08 83° E 18:04:13 10° N
CZ-4C R/B 3.2 17:55:14 10° NNE 17:58:27 41° E 18:01:32 10° S
deb Chang Zheng 4 4.1 17:55:51 10° S 17:59:59 59° WSW 18:04:12 10° NNW
Iridium 4 Rocket 3.4 17:55:59 10° N 18:00:41 87° W 18:05:48 10° S
Cosmos 614 Rocket 3.8 17:57:16 10° NNW 18:02:22 77° ENE 18:07:28 10° SSE
Cosmos 2219 Rocket 3.7 17:59:13 10° SE 18:01:22 16° ESE 18:01:22 16° ESE
Okean O Rocket 1.6 17:58:47 10° SSE 18:03:08 82° WSW 18:07:32 10° NNW
Cosmos 304 Rocket 3.7 17:58:35 10° S 18:03:17 62° ESE 18:08:03 10° NNE
Cosmos 1844 3.7 17:59:34 10° NNW 18:05:21 64° ENE 18:11:02 10° SE
Cosmos 2360 Rocket 2.6 18:00:46 10° S 18:06:01 42° ESE 18:11:19 10° NE
Meteor 1-4 Rocket 2.4 18:03:48 10° S 18:07:12 59° E 18:10:37 10° NNE
CZ-4 R/B 1.5 18:03:19 10° SE 18:07:14 50° ENE 18:11:16 10° N
Cosmos 1602 Rocket 3.4 18:02:52 10° N 18:07:14 74° ENE 18:11:33 10° SSE
Cosmos 1932 4.4 18:01:23 10° NW 18:07:38 80° NE 18:13:52 10° SE
ARGOS 3.1 18:04:34 10° SSE 18:09:59 89° ENE 18:15:28 10° NNW
NOSS 8 (E) 4.5 18:10:10 10° SW 18:13:23 62° NW 18:14:52 26° NNE
COSMO-SKYMED 1 2.5 18:09:17 10° NNE 18:13:40 89° W 18:18:00 10° SSW
Cosmos 2333 Rocket 3.0 18:12:04 10° SSE 18:16:42 27° ESE 18:17:13 26° E
CZ-4B R/B 4.1 18:15:58 10° S 18:21:30 53° W 18:27:03 10° NNW
In-Cosmos 22 Rocket 4.0 18:17:05 10° NNW 18:22:27 84° E 18:27:46 10° SSE
SL-8 R/B 3.7 18:18:38 10° W 18:23:25 73° S 18:25:25 35° ESE
Cosmos 1190 Rocket 4.4 18:19:27 10° NNW 18:24:26 43° ENE 18:26:12 32° ESE
Spot 2 4.1 18:20:53 10° SSE 18:25:06 84° WSW 18:29:36 10° NNW
IRS-1C Rocket 4.1 18:20:17 10° SSE 18:25:27 60° ENE 18:30:39 10° N
Cosmos 332 Rocket 3.8 18:22:47 10° SSW 18:27:41 83° WNW 18:32:35 10° NNE
Cosmos 1943 Rocket 4.2 18:25:36 10° N 18:27:55 12° NNE 18:29:08 12° NE
CZ-2C R/B 2.7 18:22:19 10° NNE 18:27:57 86° WNW 18:33:28 10° SSW
Feng Yun 1-1 Rocket 4.3 18:22:23 10° SSE 18:28:00 84° WSW 18:33:50 10° NNW
Okean-O 2.8 18:26:34 31° SE 18:28:17 49° ENE 18:32:35 10° N
USA 215 3.4 18:24:03 19° ENE 18:28:57 72° NNW 18:35:28 10° WSW
Cosmos 1825 Rocket 3.5 18:25:15 10° N 18:29:30 54° ENE 18:31:17 31° SE
Cosmos 1980 Rocket 4.0 18:25:45 10° WSW 18:30:35 28° NW 18:35:29 10° NNE
CSL-04 Debris 4.3 18:28:30 23° SE 18:31:41 51° ENE 18:36:57 10° N
H-2A R/B 2.6 18:29:03 10° S 18:33:17 74° WSW 18:37:24 10° NNW
NOSS 2-3 (E) 3.8 18:29:22 10° SW 18:33:29 71° NW 18:36:32 22° NE
Cosmos 1892 2.7 18:30:22 10° NNW 18:34:08 77° W 18:37:52 10° S
Cosmos 1758 Rocket 3.5 18:32:34 10° NNW 18:36:55 84° W 18:41:15 10° S
Cosmos 2228 3.0 18:32:57 10° S 18:37:15 58° E 18:41:36 10° NNE
Cosmos 2322 4.3 18:33:27 10° S 18:38:00 34° ESE 18:38:00 34° ESE
USA 229 DEB 3.5 18:32:21 10° SSW 18:38:44 75° SE 18:43:37 20° NE
USA 229 3.5 18:32:28 10° SSW 18:38:51 74° SE 18:43:41 21° NE
Cosmos 2344 4.4 18:29:59 10° NW 18:38:58 77° SW 18:51:33 10° SSE
Cosmos 1408 2.7 18:37:12 10° NNW 18:40:47 70° W 18:43:38 15° S
CSL-04 Rocket 3.8 18:39:01 29° SE 18:41:45 57° ENE 18:47:12 10° N
Cosmos 1953 Rocket 3.7 18:38:59 10° N 18:43:15 50° ENE 18:43:15 50° ENE
Cosmos 1459 Rocket 4.1 18:42:10 10° SSE 18:48:04 49° E 18:53:55 10° NNE
Cosmos 220 Rocket 4.2 18:43:39 10° SSW 18:48:04 71° WNW 18:51:30 16° NNE
X-37B 3.6 18:48:27 10° WSW 18:50:01 12° SSW 18:51:09 11° S
SL-08 RB Rocket 4.4 18:46:17 10° S 18:50:45 54° W 18:55:19 10° NNW
H-2A R/B 4.1 18:47:12 10° SSW 18:51:53 29° W 18:56:38 10° NNW
HJ-1C 3.9 18:52:28 54° SW 18:52:46 57° W 18:56:01 10° NNW
Cosmos 1844 Rocket 3.4 18:48:18 10° NW 18:53:43 53° WSW 18:59:07 10° S
Cosmos 2100 Rocket 4.0 18:47:41 10° S 18:53:53 59° E 19:00:08 10° NNE
Meteor 2-10 Rocket 4.0 18:48:29 10° SSW 18:53:57 65° WNW 18:59:13 10° N
ATLAS 3B R/B 4.1 18:48:22 10° WNW 18:54:10 29° NNW 18:58:46 15° NE
Cosmos 2369 Rocket 4.4 18:54:55 10° N 18:56:24 11° NNE 18:57:05 11° NNE
Tiangong 4.0 18:59:35 10° SW 19:00:17 11° SSW 19:00:17 11° SSW
NOSS 3-1 (A) 3.3 18:55:46 10° SW 19:01:11 83° NW 19:04:32 29° NE
DMSP B5D2-2 3.9 18:56:55 10° NNE 19:02:12 86° ESE 19:07:26 10° SSW
Cosmos 2058 4.1 18:59:18 10° N 19:01:39 31° N 19:01:39 31° N
Cosmos 2173 Rocket 3.9 18:58:14 10° S 19:04:21 66° E 19:10:37 10° NNE
Cosmos 1802 Rocket 4.0 19:05:58 53° E 19:05:58 53° E 19:11:36 10° NNE
H-2A R/B 3.0 19:07:49 36° SSW 19:07:49 36° SSW 19:10:22 10° SSW
BREEZE-M DEB (TANK) 4.1 19:02:14 10° W 19:06:15 32° SW 19:06:15 32° SW
YAOGAN 1 3.8 19:03:04 10° S 19:07:10 42° W 19:11:18 10° NNW
IRS-P2 Rocket 4.5 19:06:16 40° SSE 19:08:12 88° WSW 19:13:27 10° NNW
CENTAUR R/B 3.6 19:03:35 10° NW 19:10:48 43° NNE 19:12:59 37° ENE
Lacrosse 4 Rocket 4.4 19:12:08 10° WNW 19:14:41 15° WSW 19:17:15 10° SW
Cosmos 1825 3.2 19:13:11 10° NNW 19:16:21 45° WNW 19:16:21 45° WNW
Cosmos 44 3.8 19:12:22 10° SW 19:17:45 65° NW 19:19:21 43° NNE
NOSS 3-2 (A) 4.3 19:11:44 10° NW 19:18:34 48° NNE 19:19:55 44° ENE
Cosmos 1140 Rocket 3.9 19:14:22 10° NNW 19:19:28 59° WSW 19:21:15 38° SSW
ATLAS 5 CENTAUR R/B 3.7 19:17:20 10° WNW 19:20:35 20° NNW 19:21:54 18° N
Cosmos 2278 Rocket 2.6 19:15:39 10° NNW 19:20:29 49° NNE 19:20:29 49° NNE
Cosmos 407 Rocket 4.1 19:16:19 10° NNW 19:21:32 55° WSW 19:23:45 33° SSW
ATLAS 5 CENTAUR R/B 4.2 19:05:38 10° W 19:23:16 41° NNW 19:26:02 28° NNE
NOSS 3-1 (C) 4.2 19:19:59 10° WSW 19:25:22 45° NNW 19:28:48 25° NNE
Cosmos 2333 4.1 19:21:38 10° SSW 19:27:18 88° WNW 19:27:51 74° NNE
USA 238 DEB 4.4 19:22:26 10° NW 19:29:06 42° NNE 19:29:49 41° NE
USA 238 4.4 19:22:31 10° NW 19:29:12 42° NNE 19:29:54 41° NE
SL-16 R/B 3.8 19:25:01 10° WSW 19:30:01 31° NW 19:35:05 10° NNE
Cosmos 676 Rocket 4.2 19:25:57 10° NNW 19:30:25 65° NNW 19:30:25 65° NNW
Tsikada Rocket 4.2 19:25:42 10° N 19:30:42 53° NNE 19:30:42 53° NNE
Cosmos 1954 Rocket 4.2 19:28:37 10° NNW 19:33:11 67° NNW 19:33:11 67° NNW
Cosmos 2322 Rocket 3.7 19:36:23 10° WSW 19:41:23 32° NW 19:46:08 11° NNE
CZ-4 R/B 4.1 19:39:39 10° SW 19:42:31 18° W 19:45:26 10° NW
Cosmos 2219 Rocket 3.3 19:40:18 10° SSW 19:43:11 32° SSW 19:43:11 32° SSW
Cosmos 2360 Rocket 3.3 19:44:43 10° WSW 19:50:03 41° NW 19:53:15 22° N
Cosmos 2333 Rocket 2.9 19:54:57 10° SW 19:59:19 49° WSW 19:59:19 49° WSW
USA 215 3.8 20:11:24 50° N 20:11:34 50° N 20:17:50 10° WNW
Cosmos 1943 Rocket 4.0 20:08:17 10° NNW 20:10:39 22° N 20:10:39 22° N
Cosmos 2369 Rocket 4.5 20:37:31 10° NNW 20:38:51 16° N 20:38:51 16° N
ATLAS 3B R/B 4.2 20:40:59 10° NW 20:46:00 29° N 20:46:00 29° N
CENTAUR R/B 3.6 20:54:20 10° NW 21:00:09 55° NW 21:00:09 55° NW
Cosmos 2278 Rocket 4.4 21:00:07 10° NW 21:02:19 21° WNW 21:02:19 21° WNW
